Regional Weather Roundup
Issued by NWS

Home | Current Version | Previous Version | Graphics & Text | Print | Product List | Glossary On
Versions: 1 2 3 4 5 6 7 8 9 10 11 12 13 14 15 16 17 18 19 20 21 22 23 24 25 26 27 28 29 30 31 32 33 34 35 36 37 38 39 40 41 42 43 44 45 46 47 48 49 50
000
ASUS45 KBOU 180507
RWRCO

WEATHER ROUNDUP FOR COLORADO
NATIONAL WEATHER SERVICE DENVER/BOULDER CO
1100 PM MDT FRI APR 17 2015

NOTE: "FAIR" INDICATES FEW OR NO CLOUDS BELOW 12000 FEET WITH NO
SIGNIFICANT WEATHER AND/OR OBSTRUCTIONS TO VISIBILITY.

COZ001>005-013-030-031-180600-
...NORTHWEST COLORADO...

CITY           SKY/WX    TMP DP  RH WIND       PRES   REMARKS
CRAIG          MOCLDY    35  32  88 CALM      30.03R
HAYDEN         MOCLDY    36  30  80 W5        30.02S
MEEKER         CLOUDY    37  34  89 MISG      30.04S
MOUNT WERNER   NOT AVBL
STEAMBOAT SPGS MOCLDY    33  24  67 CALM      30.02S
WALDEN         MOCLDY    28  23  80 E3        30.06S
$$

COZ006>008-011-180600-
...WEST CENTRAL VALLEYS...

CITY           SKY/WX    TMP DP  RH WIND       PRES   REMARKS
GRAND JUNCTION MOCLDY    35  35 100 CALM      30.05S
MONTROSE       LGT SNOW  33  32  96 CALM      30.06S FOG
EAGLE          PTCLDY    30  30 100 CALM      30.09R
RIFLE          CLOUDY    36  34  92 S5        30.07R
DELTA          LGT SNOW  36  35  96 E5        30.07S
NUCLA          LGT SNOW  32  32 100 E6        30.08R WCI  26
$$

COZ017>023-064>068-180600-
...SOUTHWEST COLORADO...

CITY           SKY/WX    TMP DP  RH WIND       PRES   REMARKS
DURANGO        CLOUDY    37  23  56 SW5       30.03F
CORTEZ         LGT SNOW  33  33 100 CALM      30.04F FOG
PAGOSA SPRINGS CLOUDY    27  20  73 CALM      30.05S
TELLURIDE      LGT SNOW  26  25  96 CALM      30.04F
WOLF CREEK PAS FOG       14  12  92 SW12      30.06S VSB 3/4 WCI   0
$$

COZ009-010-012-014-032>034-037-058>063-180600-
...CENTRAL COLORADO...

CITY           SKY/WX    TMP DP  RH WIND       PRES   REMARKS
ASPEN          PTCLDY    25  23  92 N5        30.05R WCI  19
BUENA VISTA    PTCLDY    24  16  71 NW13      30.05F WCI  12
COPPER MTN     CLOUDY    23   3  42 E7        30.06S WCI  15
BERTHOUD PASS  LGT SNOW  14   5  67 CALM      30.08S
COTTONWOOD PAS PTCLDY    27  14  59 W12       30.04F WCI  16
GUNNISON       PTCLDY    28  25  86 CALM      30.07F
KREMMLING      PTCLDY    30  19  64 SW5       30.06S WCI  25
LEADVILLE      CLOUDY    13   8  81 N6        30.05R WCI   4
MONARCH PASS     N/A     14  12  92 MISG      30.13F
SALIDA         PTCLDY    28  22  79 NW6       30.12F WCI  21
SUNLIGHT       PTCLDY   N/A N/A N/A NE5       30.09S
WILKERSON PASS CLOUDY    19  18  93 CALM      30.06F
$$

COZ069>075-180600-
...SAN LUIS VALLEY/SANGRE DE CRISTO MOUNTAINS...

CITY           SKY/WX    TMP DP  RH WIND       PRES   REMARKS
ALAMOSA        MOCLDY    29  22  75 S3        30.04S
LA VETA PASS   PTCLDY    21  14  73 MISG      30.02F
SAGUACHE       PTCLDY    28  23  80 N7        30.04F WCI  21
$$

COZ035-036-038>040-180600-
...NORTHERN COLORADO FRONT RANGE...

CITY           SKY/WX    TMP DP  RH WIND       PRES   REMARKS
DENVER INTL AP CLOUDY    42  39  89 NW12      30.03R
DMNS CITY PARK   N/A     42  36  80 N5        30.04R
AURORA         MOCLDY    37  36  99 W5        30.04S
FRONT RANGE AP NOT AVBL
ERIE MUNI ARPT LGT RAIN  42  36  79 N12       30.02F
BOULDER MUN AP CLOUDY    43  36  75 E3        30.04R
CENTENNIAL     CLOUDY    35  33  92 W9        30.02F WCI  28
BROOMFIELD     NOT AVBL
FORT COLLINS   CLOUDY    41  34  75 N12       30.06R
LONGMONT       CLOUDY    44  36  72 E9        30.07R
$$

COZ041-046-047-076>085-087-088-180600-
...PIKES PEAK/PALMER DIVIDE AND SOUTHERN FOOTHILLS...

CITY           SKY/WX    TMP DP  RH WIND       PRES   REMARKS
COLO. SPRINGS  CLOUDY    36  32  85 NW10      30.00F
A. F. ACADEMY  CLOUDY    33  32  99 N6        29.99F WCI  27
ELLICOTT       CLOUDY   N/A N/A N/A NW7       29.98F
FALCON         CLOUDY    32  30  94 NW6       30.00S WCI  26
FORT CARSON    MOCLDY    36  32  86 NW9       29.97F
LIMON          PTCLDY    37  35  92 NW12      30.02S
MONUMENT HILL  FOG       27  27 100 NW6       30.00R VSB 1/4 WCI  20
TRINIDAD       CLOUDY    41  30  65 W7        29.99S
$$

COZ042>045-048>051-090-091-180600-
...NORTHEAST COLORADO...

CITY           SKY/WX    TMP DP  RH WIND       PRES   REMARKS
GREELEY ARPT   MOCLDY    41  34  75 CALM      30.08R
AKRON          CLOUDY    41  41 100 NW14      30.01F
BURLINGTON     FAIR      47  43  86 E13       29.95F
WRAY           CLOUDY    50  46  85 E14G23    29.96S
STERLING       RAIN      43  41  93 N14G23    30.02S
HOLYOKE        CLOUDY    52  45  76 SW5       30.00R
FORT MORGAN    RAIN      40  37  86 N16       30.06R
$$

COZ086-089-092>099-180600-
...SOUTHEAST COLORADO...

CITY           SKY/WX    TMP DP  RH WIND       PRES   REMARKS
PUEBLO         PTCLDY    41  35  79 N12       29.98F
LA JUNTA       PTCLDY    43  37  79 N6        29.97R
LAMAR          PTCLDY    45  37  73 E12       29.94F
SPRINGFIELD      N/A     36  31  82 VRB7      29.97R
$$



USA.gov is the U.S. government's official web portal to all federal, state and local government web resources and services.